Погода в Вагае

Россия / Тюменская область     56°28′25″N   67°18′30″E
темп.,
°C
ветер,
м/с
пор.,
м/с
влажн.,
%
обл.,
%
осадки,
мм/ч
давл.,
гПа
погр.,
м
13 августа, сб
сб1323:00+17з41064100 0.1 1013299
02:00+15з487199 0.0 1012172
05:00+15зюз51070100 0.0 1010270
08:00+17зюз61171100 0.0 1009470
11:00+20з811665 0.0 10081040
14:00+21зсз812690 0.7 10071555
17:00+19зсз7145959 1.0 1008968
20:00+18сз714530 0.0 1009724
14 августа, вс
вс1423:00+14сз613650 0.0 1011737
02:00+12сз613720 0.0 1013594
05:00+9зсз411844 0.0 1014263
08:00+13сз610703 0.0 1015571
11:00+17сз7105515 0.0 10151602
14:00+16сз6956100 0.0 10161298
17:00+16сз595666 0.0 10171218
20:00+12сз34726 0.0 101753
15 августа, пн
пн1523:00+10сз49795 0.0 1018149
02:00+8зсз48855 0.0 1019150
05:00+7сз410885 0.0 1020175
08:00+12ссз46685 0.0 1021378
11:00+15сз465031 0.0 10211723
14:00+18зсз574435 0.0 10202114
17:00+17сз564710 0.0 10201902
20:00+13ссз346195 0.0 102088
16 августа, вт
вт1623:00+12ссв116239 0.0 102113
02:00+10ссз226667 0.0 102110
05:00+11з356451 0.0 1022124
08:00+13зсз46645 0.0 1022289
11:00+17зсз574983 0.0 10201261
14:00+17з59556 0.0 1019771
17:00+18сз5960100 0.1 1017868
20:00+14зсз357930 0.0 101768
17 августа, ср
ср1723:00+11з457818 0.0 101758
02:00+11сз117799 0.1 101628
05:00+8ссз49945 0.1 1017183
08:00+10с6106918 0.0 1018687
11:00+13ссз795195 0.1 10182008
14:00+13ссз7949100 0.1 10182103
17:00+12сз795998 0.2 10191406
20:00+8ссз487993 0.3 1019194